IV3CGM-13 Weather Reports


time (UTC)temp
C
wind
direction
speed
KPH
gust
KPH
rain 1hr
cm
rain 24hr
cm
rain mn
cm
humidity
%
barometer
mb
20260507210735 11 306 8.0 8.0 0.00 0.00 0.61 84 1015.3
20260507205519 12 318 6.4 9.7 0.00 0.00 0.61 86 1015.4
20260507204338 12 296 6.4 9.7 0.00 0.00 0.61 88 1015.4
20260507203210 12 300 4.8 8.0 0.00 0.00 0.61 87 1015.3
20260507202043 11 321 6.4 6.4 0.00 0.00 0.61 87 1015.1
20260507200915 12 306 4.8 8.0 0.00 0.00 0.61 93 1015.1
20260507195748 12 330 4.8 11.3 0.00 0.00 0.61 84 1015.0
20260507194621 12 330 8.0 9.7 0.00 0.00 0.61 91 1014.9
20260507193506 12 278 6.4 9.7 0.00 0.00 0.61 88 1014.8
20260507192324 12 300 6.4 9.7 0.00 0.00 0.61 87 1014.6
20260507191156 12 302 8.0 8.0 0.00 0.00 0.61 89 1014.5
20260507190028 12 318 6.4 9.7 0.00 0.00 0.61 92 1014.3
20260507184901 12 306 6.4 8.0 0.00 0.00 0.61 94 1014.2
20260507183644 11 272 8.0 9.7 0.00 0.00 0.61 93 1014.0
20260507182503 11 288 8.0 8.0 0.00 0.00 0.61 99 1013.9
20260507181335 11 301 6.4 8.0 0.00 0.00 0.61 99 1013.8
20260507180208 11 306 6.4 6.4 0.00 0.00 0.61 99 1013.8
20260507175040 12 296 6.4 8.0 0.00 0.00 0.61 99 1013.8
20260507173823 12 300 6.4 6.4 0.00 0.00 0.61 97 1013.8
20260507172643 12 291 8.0 8.0 0.00 0.00 0.61 94 1013.8
20260507171515 12 306 4.8 6.4 0.00 0.00 0.61 96 1013.7
20260507170348 13 297 6.4 8.0 0.00 0.00 0.61 93 1013.8
20260507165220 13 301 6.4 6.4 0.00 0.00 0.61 91 1013.8
20260507164053 13 306 6.4 9.7 0.00 0.00 0.61 91 1013.8
20260507162926 13 295 8.0 8.0 0.00 0.00 0.61 89 1013.7
20260507161759 14 289 6.4 8.0 0.00 0.00 0.61 86 1013.6
20260507160618 14 288 4.8 8.0 0.00 0.00 0.61 87 1013.5
20260507155450 13 300 4.8 8.0 0.00 0.00 0.61 89 1013.5
20260507154323 14 276 9.7 9.7 0.05 0.00 0.61 82 1013.5
20260507153155 15 156 3.2 8.0 0.05 0.00 0.61 71 1013.3
20260507151940 13 240 6.4 6.4 0.13 0.00 0.61 89 1013.1
20260507150758 13 144 3.2 4.8 0.13 0.00 0.61 91 1013.0
20260507145630 12 300 3.2 9.7 0.13 0.00 0.61 92 1012.4
20260507144503 13 322 6.4 11.3 0.13 0.00 0.61 92 1012.6
20260507143336 13 96 8.0 14.5 0.08 0.00 0.56 79 1012.6
20260507142119 15 6 12.9 30.6 0.00 0.00 0.48 69 1012.3
20260507140938 14 277 6.4 8.0 0.00 0.00 0.48 91 1012.2
20260507135810 15 300 6.4 6.4 0.00 0.00 0.48 88 1012.0
20260507134643 15 300 6.4 9.7 0.00 0.00 0.48 84 1011.9
20260507133516 16 285 6.4 6.4 0.00 0.00 0.48 82 1012.0
20260507132259 17 252 3.2 6.4 0.00 0.00 0.48 83 1012.1
20260507131117 18 216 3.2 8.0 0.00 0.00 0.48 71 1012.2
20260507125949 18 102 3.2 8.0 0.00 0.00 0.48 57 1012.3
20260507124821 20 198 0.0 6.4 0.00 0.00 0.48 50 1012.3
20260507123654 19 30 3.2 6.4 0.00 0.00 0.48 58 1012.2
20260507122437 18 96 3.2 8.0 0.00 0.00 0.48 49 1012.2
20260507121256 17 222 8.0 8.0 0.00 0.00 0.48 68 1012.4
20260507120128 17 192 6.4 8.0 0.05 0.00 0.48 76 1012.4
20260507115001 16 204 3.2 8.0 0.05 0.00 0.48 81 1012.6
20260507113834 15 295 3.2 6.4 0.05 0.00 0.48 94 1012.5
20260507112617 15 288 4.8 8.0 0.08 0.00 0.48 92 1012.5
20260507111436 16 282 4.8 4.8 0.08 0.00 0.48 89 1012.6
20260507110308 16 291 6.4 6.4 0.23 0.00 0.48 81 1012.7
20260507105141 16 315 3.2 6.4 0.28 0.00 0.48 83 1012.8
20260507104014 16 318 3.2 4.8 0.43 0.00 0.48 93 1012.9
20260507102757 14 290 3.2 8.0 0.48 0.00 0.48 92 1012.9
20260507101616 13 311 4.8 8.0 0.48 0.00 0.48 97 1013.0
20260507100449 13 306 6.4 6.4 0.36 0.00 0.36 96 1013.1
20260507095320 13 318 8.0 11.3 0.23 0.00 0.23 94 1013.1
20260507094152 15 306 12.9 14.5 0.13 0.00 0.13 89 1013.1
20260507092935 17 216 4.8 8.0 0.00 0.00 0.00 74 1013.0
20260507091758 17 121 12.9 14.5 0.00 0.00 0.00 72 1012.6
20260507090627 17 192 9.7 11.3 0.00 0.00 0.00 72 1012.7
20260507085459 16 138 6.4 12.9 0.00 0.00 0.00 77 1012.7
20260507084332 16 126 8.0 11.3 0.00 0.00 0.00 73 1012.7
20260507083115 16 168 6.4 11.3 0.00 0.00 0.00 76 1012.7
20260507081934 16 126 3.2 11.3 0.00 0.00 0.00 78 1012.6
20260507080807 15 168 6.4 14.5 0.00 0.00 0.00 80 1012.6
20260507075639 15 90 3.2 6.4 0.00 0.00 0.00 83 1012.6
20260507074512 15 192 3.2 3.2 0.00 0.00 0.00 83 1012.6
20260507073255 15 104 3.2 8.0 0.00 0.00 0.00 84 1012.6
20260507072114 15 120 3.2 11.3 0.00 0.00 0.00 80 1012.5
20260507070947 16 108 11.3 11.3 0.00 0.00 0.00 81 1012.4
20260507065819 16 96 6.4 8.0 0.00 0.00 0.00 77 1012.3
20260507064651 16 294 3.2 4.8 0.00 0.00 0.00 77 1012.3
20260507063435 15 258 3.2 3.2 0.00 0.00 0.00 82 1012.2
20260507062254 14 258 0.0 3.2 0.00 0.00 0.00 86 1012.1
20260507061127 13 258 0.0 3.2 0.00 0.00 0.00 92 1012.1
20260507055959 13 258 3.2 3.2 0.00 0.00 0.00 95 1012.1
20260507054831 13 180 4.8 4.8 0.00 0.00 0.00 90 1011.9
20260507053615 13 168 3.2 6.4 0.00 0.00 0.00 86 1011.7
20260507052434 13 18 4.8 8.0 0.00 0.00 0.00 90 1011.5
20260507051306 12 289 3.2 11.3 0.00 0.00 0.00 87 1011.4
20260507050138 12 296 3.2 12.9 0.00 0.00 0.00 91 1011.4
20260507045011 12 336 4.8 8.0 0.00 0.00 0.00 90 1011.1
20260507043754 11 294 3.2 9.7 0.00 0.00 0.00 91 1010.9
20260507042613 12 314 4.8 11.3 0.00 0.00 0.00 93 1011.0
20260507041446 12 348 8.0 11.3 0.00 0.00 0.00 92 1011.0
20260507040318 12 306 9.7 9.7 0.00 0.00 0.00 94 1011.0
20260507035151 12 348 4.8 9.7 0.00 0.00 0.00 94 1011.1
20260507033934 11 296 4.8 8.0 0.00 0.00 0.00 98 1011.0
20260507032754 11 289 8.0 8.0 0.00 0.00 0.00 95 1010.9
20260507031626 11 321 3.2 3.2 0.00 0.00 0.00 99 1010.9
20260507030500 11 318 3.2 4.8 0.00 0.00 0.00 99 1010.9
20260507025331 11 306 6.4 6.4 0.00 0.00 0.00 98 1010.9
20260507024115 11 306 3.2 6.4 0.00 0.00 0.00 99 1010.8
20260507022933 11 306 4.8 4.8 0.00 0.00 0.00 99 1010.9
20260507021805 12 314 6.4 6.4 0.00 0.00 0.00 99 1010.8
20260507020638 12 301 6.4 9.7 0.00 0.00 0.00 97 1010.9
20260507015510 12 318 6.4 6.4 0.00 0.00 0.00 98 1010.8
20260507014254 12 341 8.0 8.0 0.00 0.00 0.00 98 1010.9
20260507013112 12 322 6.4 8.0 0.00 0.00 0.00 97 1010.9
20260507011945 12 318 3.2 6.4 0.00 0.00 0.00 99 1010.8
20260507010817 12 306 4.8 6.4 0.00 0.00 0.00 99 1010.9
20260507005650 12 303 3.2 8.0 0.00 0.00 0.00 99 1010.9
20260507004433 12 300 3.2 4.8 0.00 0.00 0.00 99 1010.9
20260507003252 12 300 3.2 6.4 0.00 0.00 0.00 99 1010.9
20260507002125 12 318 4.8 4.8 0.00 0.00 0.00 99 1010.9
20260507000957 12 321 3.2 6.4 0.00 0.00 0.00 99 1011.0
20260506235830 12 318 3.2 6.4 0.00 0.00 0.00 99 1011.0
20260506234613 12 306 4.8 4.8 0.08 0.00 0.00 99 1011.0
20260506233433 12 306 4.8 4.8 0.08 0.00 0.00 99 1011.0
20260506232306 12 306 3.2 3.2 0.08 0.00 0.00 99 1011.1
20260506231137 12 306 3.2 4.8 0.13 0.00 0.00 99 1011.2
20260506230009 12 306 4.8 4.8 0.43 0.00 0.00 99 1011.2
20260506224753 12 306 3.2 6.4 0.99 0.00 5.77 99 1011.2
20260506223612 12 300 4.8 6.4 1.04 0.00 5.77 99 1011.2
20260506222444 12 300 4.8 4.8 1.04 0.00 5.77 99 1011.1
20260506221317 12 313 4.8 6.4 1.04 0.00 5.77 99 1011.1
20260506220149 12 313 6.4 6.4 0.71 0.00 5.46 99 1011.2
20260506214932 12 314 3.2 3.2 0.13 0.00 4.88 99 1011.1
20260506213752 12 311 3.2 8.0 0.00 0.00 4.75 98 1011.0
20260506212624 12 12 3.2 6.4 0.00 0.00 4.75 99 1011.0
20260506211457 12 264 3.2 3.2 0.00 0.00 4.75 99 1011.1